Devils Lake, ND

1:47 AM CDT on May 29, 2017 (GMT -0500)
Devils Lake Municipal

Weather History for KDVL - November, 2012

Change the Weather History Date:

Friday, November 2, 2012

  Actual Average Record
Temperature  
Mean Temperature 28 °F -  
Max Temperature 30 °F 41 °F 67 °F (1983)
Min Temperature 26 °F 25 °F -4 °F (1984)
Degree Days  
Heating Degree Days 37    
Moisture  
Dew Point 24 °F    
Average Humidity 85    
Maximum Humidity 93    
Minimum Humidity 80    
Precipitation  
Precipitation 0.00 in - - ()
Sea Level Pressure  
Sea Level Pressure 30.11 in    
Wind  
Wind Speed 9 mph (ESE)    
Max Wind Speed 14 mph    
Max Gust Speed -    
Visibility 6 miles    
Events      
Averages and records for this station are not official NWS values.
T = Trace of Precipitation, MM = Missing Value Source: NWS Daily Summary

Daily Weather History Graph

Daily Weather History Graph

Search for Another Location

Airport or City:

Trip Planner

Search our weather history database for the weather conditions in past years. The results will help you decide how hot, cold, wet, or windy it might be!

Date:

Astronomy

Nov. 02, 2012 Rise Set
Actual Time 8:23 AM CDT 6:14 PM CDT
Civil Twilight 7:50 AM CDT 6:47 PM CDT
Nautical Twilight 7:13 AM CDT 7:24 PM CDT
Astronomical Twilight 6:37 AM CDT 8:00 PM CDT
Moon 8:53 PM CDT (11/2) 11:54 AM CDT (11/2)
Length of Visible Light 10h 56m
Length of Day
9h 51m
Waning Gibbous, 87% of the Moon is Illuminated
Nov 2
Waning Gibbous
Nov 6
Last Quarter
Nov 13
New
Nov 20
First Quarter
Nov 28
Full

Hourly Weather History & Observations

Time (CDT) Temp. Windchill Dew Point Humidity Pressure Visibility Wind Dir Wind Speed Gust Speed Precip Events Conditions
12:15 AM 26.6 °F 17.5 °F 21.2 °F 80% 30.08 in 10.0 mi East 9.2 mph - N/A   Overcast
12:35 AM 26.6 °F 18.2 °F 21.2 °F 80% 30.09 in 10.0 mi ESE 8.1 mph - N/A   Overcast
12:55 AM 26.6 °F 15.2 °F 21.2 °F 80% 30.10 in 10.0 mi East 13.8 mph - N/A   Overcast
1:15 AM 26.6 °F 16.8 °F 21.2 °F 80% 30.09 in 10.0 mi East 10.4 mph - N/A   Overcast
1:35 AM 26.6 °F 17.5 °F 21.2 °F 80% 30.10 in 10.0 mi East 9.2 mph - N/A   Overcast
1:55 AM 26.6 °F 16.8 °F 21.2 °F 80% 30.11 in 10.0 mi East 10.4 mph - N/A   Overcast
2:15 AM 26.6 °F 16.2 °F 21.2 °F 80% 30.10 in 10.0 mi East 11.5 mph - N/A   Overcast
2:35 AM 26.6 °F 16.2 °F 21.2 °F 80% 30.10 in 10.0 mi East 11.5 mph - N/A   Overcast
2:55 AM 26.6 °F 15.7 °F 21.2 °F 80% 30.10 in 10.0 mi East 12.7 mph - N/A   Overcast
3:15 AM 26.6 °F 17.5 °F 21.2 °F 80% 30.10 in 10.0 mi East 9.2 mph - N/A   Overcast
3:35 AM 26.6 °F 16.8 °F 21.2 °F 80% 30.10 in 10.0 mi East 10.4 mph - N/A   Overcast
3:55 AM 26.6 °F 17.5 °F 21.2 °F 80% 30.10 in 10.0 mi East 9.2 mph - N/A   Overcast
4:15 AM 26.6 °F 17.5 °F 21.2 °F 80% 30.10 in 10.0 mi East 9.2 mph - N/A   Overcast
4:35 AM 26.6 °F 18.2 °F 23.0 °F 86% 30.11 in 10.0 mi East 8.1 mph - N/A   Overcast
4:55 AM 26.6 °F 18.2 °F 23.0 °F 86% 30.10 in 10.0 mi East 8.1 mph - N/A   Overcast
5:15 AM 26.6 °F 17.5 °F 21.2 °F 80% 30.10 in 10.0 mi East 9.2 mph - N/A   Overcast
5:35 AM 26.6 °F 16.8 °F 21.2 °F 80% 30.09 in 10.0 mi East 10.4 mph - N/A   Overcast
5:55 AM 26.6 °F 18.2 °F 21.2 °F 80% 30.10 in 10.0 mi ESE 8.1 mph - N/A   Overcast
6:15 AM 26.6 °F 18.2 °F 21.2 °F 80% 30.10 in 10.0 mi East 8.1 mph - N/A   Overcast
6:35 AM 26.6 °F 17.5 °F 21.2 °F 80% 30.10 in 10.0 mi East 9.2 mph - N/A   Overcast
6:55 AM 26.6 °F 17.5 °F 21.2 °F 80% 30.10 in 10.0 mi East 9.2 mph - N/A   Overcast
7:15 AM 26.6 °F 17.5 °F 21.2 °F 80% 30.11 in 10.0 mi East 9.2 mph - N/A   Overcast
7:35 AM 26.6 °F 20.0 °F 21.2 °F 80% 30.12 in 10.0 mi East 5.8 mph - N/A   Overcast
7:55 AM 26.6 °F 18.2 °F 21.2 °F 80% 30.11 in 10.0 mi ESE 8.1 mph - N/A   Overcast
8:15 AM 26.6 °F 19.1 °F 21.2 °F 80% 30.12 in 10.0 mi ESE 6.9 mph - N/A   Overcast
8:35 AM 26.6 °F 16.8 °F 21.2 °F 80% 30.12 in 10.0 mi East 10.4 mph - N/A   Overcast
8:55 AM 26.6 °F 17.5 °F 23.0 °F 86% 30.12 in 10.0 mi East 9.2 mph - N/A   Overcast
9:15 AM 26.6 °F 16.8 °F 21.2 °F 80% 30.12 in 10.0 mi East 10.4 mph - N/A   Overcast
9:35 AM 26.6 °F 17.5 °F 23.0 °F 86% 30.12 in 10.0 mi East 9.2 mph - N/A   Overcast
9:55 AM 26.6 °F 17.5 °F 21.2 °F 80% 30.12 in 10.0 mi East 9.2 mph - N/A   Overcast
10:15 AM 26.6 °F 16.8 °F 23.0 °F 86% 30.12 in 10.0 mi ESE 10.4 mph - N/A   Overcast
10:35 AM 26.6 °F 16.8 °F 21.2 °F 80% 30.13 in 10.0 mi ESE 10.4 mph - N/A   Overcast
10:55 AM 26.6 °F 17.5 °F 21.2 °F 80% 30.12 in 10.0 mi East 9.2 mph - N/A   Overcast
11:15 AM 28.4 °F 19.7 °F 23.0 °F 80% 30.12 in 10.0 mi ESE 9.2 mph - N/A   Overcast
11:35 AM 28.4 °F 19.7 °F 23.0 °F 80% 30.12 in 10.0 mi ESE 9.2 mph - N/A   Overcast
11:55 AM 28.4 °F 20.4 °F 23.0 °F 80% 30.12 in 6.0 mi ESE 8.1 mph - N/A   Overcast
12:15 PM 28.4 °F 18.0 °F 23.0 °F 80% 30.12 in 1.5 mi East 12.7 mph - N/A   Overcast
12:35 PM 28.4 °F 20.4 °F 24.8 °F 86% 30.13 in 1.0 mi SE 8.1 mph - N/A   Overcast
12:55 PM 28.4 °F 21.2 °F 24.8 °F 86% 30.12 in 1.0 mi SSE 6.9 mph - N/A   Overcast
1:15 PM 28.4 °F 21.2 °F 24.8 °F 86% 30.12 in 5.0 mi SSE 6.9 mph - N/A   Overcast
1:35 PM 28.4 °F 21.2 °F 24.8 °F 86% 30.12 in 10.0 mi SSE 6.9 mph - N/A   Overcast
1:55 PM 28.4 °F 21.2 °F 23.0 °F 80% 30.11 in 10.0 mi SSE 6.9 mph - N/A   Overcast
2:15 PM 28.4 °F 19.7 °F 24.8 °F 86% 30.11 in 3.0 mi SSE 9.2 mph - N/A   Overcast
2:35 PM 28.4 °F 20.4 °F 24.8 °F 86% 30.10 in 0.8 mi SE 8.1 mph - N/A   Overcast
2:55 PM 28.4 °F 20.4 °F 24.8 °F 86% 30.10 in 0.5 mi SE 8.1 mph - N/A   Overcast
3:15 PM 28.4 °F 21.2 °F 26.6 °F 93% 30.09 in 0.5 mi ESE 6.9 mph - N/A   Overcast
3:35 PM 28.4 °F 20.4 °F 26.6 °F 93% 30.09 in 0.2 mi ESE 8.1 mph - N/A   Overcast
3:55 PM 28.4 °F 21.2 °F 26.6 °F 93% 30.09 in 0.5 mi ESE 6.9 mph - N/A   Overcast
4:15 PM 28.4 °F 20.4 °F 26.6 °F 93% 30.09 in 0.8 mi ESE 8.1 mph - N/A   Overcast
4:35 PM 28.4 °F 20.4 °F 24.8 °F 86% 30.10 in 1.2 mi East 8.1 mph - N/A   Overcast
4:55 PM 28.4 °F 19.1 °F 24.8 °F 86% 30.10 in 2.0 mi ESE 10.4 mph - N/A   Overcast
5:15 PM 28.4 °F 19.7 °F 24.8 °F 86% 30.10 in 2.0 mi ESE 9.2 mph - N/A   Overcast
5:35 PM 28.4 °F 20.4 °F 26.6 °F 93% 30.10 in 1.5 mi ESE 8.1 mph - N/A   Overcast
5:55 PM 28.4 °F 20.4 °F 24.8 °F 86% 30.10 in 1.2 mi ESE 8.1 mph - N/A   Overcast
6:15 PM 28.4 °F 22.2 °F 26.6 °F 93% 30.10 in 0.8 mi ESE 5.8 mph - N/A   Overcast
6:35 PM 28.4 °F 21.2 °F 26.6 °F 93% 30.10 in 1.0 mi ESE 6.9 mph - N/A   Overcast
6:55 PM 28.4 °F 22.2 °F 26.6 °F 93% 30.11 in 1.5 mi ESE 5.8 mph - N/A   Overcast
7:15 PM 28.4 °F 22.2 °F 26.6 °F 93% 30.11 in 1.0 mi ESE 5.8 mph - N/A   Overcast
7:35 PM 28.4 °F 21.2 °F 26.6 °F 93% 30.11 in 1.0 mi ESE 6.9 mph - N/A   Overcast
7:55 PM 28.4 °F 22.2 °F 26.6 °F 93% 30.11 in 1.2 mi ESE 5.8 mph - N/A   Overcast
8:15 PM 28.4 °F 21.2 °F 26.6 °F 93% 30.12 in 1.2 mi ESE 6.9 mph - N/A   Overcast
8:35 PM 28.4 °F 21.2 °F 26.6 °F 93% 30.11 in 1.2 mi ESE 6.9 mph - N/A   Overcast
8:55 PM 28.4 °F 20.4 °F 26.6 °F 93% 30.12 in 1.2 mi ESE 8.1 mph - N/A   Overcast
9:15 PM 28.4 °F 22.2 °F 26.6 °F 93% 30.12 in 1.2 mi ESE 5.8 mph - N/A   Overcast
9:35 PM 28.4 °F 20.4 °F 26.6 °F 93% 30.12 in 1.2 mi ESE 8.1 mph - N/A   Overcast
9:55 PM 28.4 °F 21.2 °F 26.6 °F 93% 30.12 in 1.0 mi ESE 6.9 mph - N/A   Overcast
10:15 PM 28.4 °F 22.2 °F 26.6 °F 93% 30.12 in 1.2 mi SE 5.8 mph - N/A   Overcast
10:35 PM 28.4 °F 20.4 °F 26.6 °F 93% 30.12 in 3.0 mi SE 8.1 mph - N/A   Overcast
10:55 PM 30.2 °F 22.6 °F 26.6 °F 86% 30.12 in 3.0 mi SE 8.1 mph - N/A   Overcast
11:15 PM 30.2 °F 21.3 °F 26.6 °F 86% 30.12 in 3.0 mi SSE 10.4 mph - N/A   Overcast
11:35 PM 30.2 °F 21.9 °F 26.6 °F 86% 30.12 in 3.0 mi SE 9.2 mph - N/A   Overcast
11:55 PM 30.2 °F 21.9 °F 26.6 °F 86% 30.12 in 4.0 mi SSE 9.2 mph - N/A   Overcast